Wind_Speed
5 5 5 4 3 2 3 4 4 4 4 3 3 2 1 2 3 4 5 6 6 6 6 8 8 8 8 8 7 6 6 5 5 5 5 5 5 5 6 6 6 7 7 7 7 7 7 6 6
7 7 6 6 5 5 5 5 5 5 6 6 6 5 4 4 4 5 7 7 8 8 8 10 10 10 10 9 8 7 6 6 5 5 5 5 5 6 6 6 7 7 7 6 6 6 6 5 5
9 9 9 8 8 7 6 7 7 6 6 7 7 7 6 6 6 7 8 9 10 10 11 12 12 12 11 10 9 8 8 7 7 7 7 7 7 8 8 8 8 8 8 7 7 7 6 6 5
11 11 11 11 10 9 9 9 9 8 8 7 8 8 8 8 8 9 9 10 11 12 12 13 13 13 12 12 11 10 9 9 9 9 9 9 10 10 11 11 11 10 10 10 9 9 8 8 7
14 14 14 14 13 12 11 12 11 10 9 9 9 9 9 9 9 9 10 11 12 13 14 14 14 14 13 13 12 11 11 11 11 12 12 12 13 13 13 13 13 13 13 13 12 12 11 10 9
17 17 17 17 16 15 15 14 14 13 12 11 10 9 10 10 10 10 11 12 12 13 15 15 15 14 14 13 13 13 13 14 14 15 15 15 16 16 16 16 16 16 16 15 15 15 15 14 13
20 20 19 19 19 19 18 18 17 15 13 12 11 11 11 11 11 10 11 11 12 13 14 15 16 15 15 14 15 15 16 16 17 17 17 17 18 18 18 18 19 19 18 18 18 18 18 17 16
23 22 21 21 22 22 22 21 20 18 15 13 13 13 13 12 13 12 12 12 13 14 15 16 17 17 17 17 18 18 19 19 19 19 19 19 19 20 20 20 20 20 20 20 20 20 20 20 19
25 24 22 23 25 25 24 23 22 20 18 15 14 13 14 13 14 14 15 14 14 15 17 18 19 19 20 20 20 21 21 21 21 21 21 21 21 21 21 21 21 21 21 21 21 21 21 21 21
26 24 23 26 27 27 26 26 25 23 21 19 17 16 16 15 16 18 18 16 17 18 19 20 21 22 23 24 24 24 23 24 24 23 23 22 23 23 23 23 22 21 21 21 21 21 21 22 22
26 24 24 26 28 28 27 27 27 26 24 22 21 19 19 18 19 20 20 19 19 20 21 22 23 25 26 27 27 26 25 25 24 25 24 24 24 24 24 24 23 22 21 21 21 21 21 22 22
27 25 25 26 28 29 29 28 29 29 27 24 23 23 21 22 21 22 22 22 22 23 23 24 26 28 29 29 29 29 27 27 26 25 26 26 25 26 25 25 23 23 22 22 21 21 22 22 22
27 25 25 25 27 29 30 30 31 30 28 27 26 25 24 24 24 24 24 24 25 25 25 26 28 30 32 32 31 31 30 29 29 29 28 27 27 26 26 26 24 23 23 22 23 22 21 21 21
26 25 24 24 26 29 31 32 32 31 30 29 28 28 28 27 26 24 24 25 26 27 28 30 32 32 32 33 33 34 34 33 32 30 29 28 28 28 27 25 24 24 23 23 22 22 21 21 21
25 25 24 25 26 28 31 32 32 31 31 31 30 30 30 30 28 27 26 26 28 30 32 33 34 35 34 35 38 38 37 36 34 32 30 29 29 28 24 22 23 23 23 22 22 22 22 22 21
24 24 24 24 26 28 30 31 30 31 31 31 31 32 31 30 28 28 28 29 31 32 34 35 36 37 37 38 39 40 39 37 34 32 30 29 27 25 23 22 23 23 23 22 21 21 21 20 20
23 23 23 24 26 27 28 29 29 29 29 30 31 31 31 30 30 30 30 32 33 34 35 38 38 35 35 37 37 39 39 38 36 32 29 27 25 24 22 21 22 22 22 21 21 20 20 19 19
21 21 22 23 24 25 26 27 26 26 26 27 28 29 30 32 32 32 33 34 35 35 36 37 36 36 36 37 36 36 36 34 32 30 27 27 25 24 23 22 22 21 21 20 20 19 19 19 19
21 20 21 22 22 24 25 25 25 24 23 25 27 29 31 32 34 35 37 36 36 37 38 38 37 36 36 35 32 33 32 29 28 27 26 24 23 23 23 21 21 21 20 20 20 20 19 19 19
18 18 19 20 21 23 24 24 24 24 24 25 27 29 32 34 36 37 38 38 38 39 38 38 37 36 34 34 31 30 26 26 26 24 23 22 23 24 23 22 21 21 21 21 21 20 20 20 19
15 16 17 18 20 22 24 24 24 25 26 27 29 30 32 34 36 38 38 39 38 38 38 39 37 34 33 33 31 28 26 25 23 22 22 24 25 25 25 24 23 22 23 23 22 22 22 22 22
14 15 16 17 19 20 21 23 23 25 27 28 29 30 32 33 35 36 36 36 35 35 35 36 36 35 34 33 32 30 27 25 25 25 26 27 27 27 27 27 26 25 25 24 24 25 24 25 25
12 13 14 15 16 17 18 21 21 23 24 25 26 28 28 30 32 33 34 34 34 34 34 35 36 37 37 35 34 33 32 30 30 29 30 31 32 32 31 30 30 29 29 28 28 28 28 27 27
12 12 13 13 13 14 15 17 18 20 21 23 24 26 28 29 30 31 32 32 33 33 33 35 37 38 37 38 39 38 37 36 36 36 36 36 37 36 36 36 35 34 34 33 32 32 32 31 30
13 14 14 13 13 14 15 16 17 19 21 22 24 27 28 30 31 32 33 34 35 35 36 37 38 40 41 42 43 43 43 42 42 42 42 42 42 42 42 41 41 40 38 38 37 36 36 35 34
12 14 16 17 17 17 18 18 19 20 22 24 26 28 30 32 34 35 36 37 38 39 41 42 44 45 45 46 47 47 48 48 48 48 48 49 48 48 47 47 47 46 45 44 43 42 41 40 39
13 14 15 17 18 19 20 21 22 23 25 27 29 31 34 35 37 39 40 40 41 42 44 45 47 48 48 49 50 50 51 51 52 52 52 52 53 53 53 52 51 51 50 49 48 47 46 45 44
14 15 16 18 20 22 22 24 25 26 28 30 33 35 38 39 41 43 43 44 45 46 48 49 50 51 51 52 53 53 53 54 54 55 56 56 56 56 56 56 56 55 55 54 53 52 51 49 48
14 15 17 19 21 24 26 26 27 30 32 34 37 39 41 42 43 44 46 47 49 50 51 52 53 54 54 55 56 56 57 57 57 57 57 57 58 58 59 59 59 59 58 58 57 56 55 54 53
14 16 18 21 23 25 27 29 31 33 35 38 40 42 43 44 46 47 49 51 52 53 55 56 57 57 58 58 58 58 59 59 58 58 58 58 58 59 59 60 60 60 61 61 61 60 59 58 57
Wind_Direction
196 198 199 206 222 252 298 325 330 330 331 335 337 339 303 292 292 283 281 279 283 290 301 308 309 312 317 323 328 333 339 345 348 351 354 356 358 358 357 358 359 1 5 10 14 17 21 24 28
223 227 228 236 248 269 296 310 308 311 315 314 314 313 303 303 299 288 284 282 285 291 298 302 302 305 308 311 314 317 319 322 323 323 324 327 328 329 331 333 337 340 342 345 350 352 355 359 1
235 241 244 254 264 276 291 304 303 299 302 304 306 305 304 306 306 302 295 292 292 295 297 298 298 300 302 303 304 304 304 304 304 304 305 308 309 311 313 315 318 320 322 323 323 326 328 329 330
241 246 253 258 266 273 280 291 293 295 292 294 295 298 299 300 303 304 301 298 297 296 294 293 293 296 298 298 297 295 294 294 295 296 296 298 300 303 304 306 307 308 308 309 308 308 309 311 310
247 248 254 259 264 268 271 280 283 284 287 289 294 298 300 302 302 303 303 301 299 296 293 292 292 293 294 294 293 290 289 290 291 291 291 291 292 294 295 297 297 298 299 299 299 298 297 298 298
251 254 258 263 267 270 272 276 280 281 285 288 288 291 295 298 300 301 304 302 300 297 294 292 291 291 290 289 288 287 287 288 288 287 287 288 288 289 290 291 291 292 292 292 292 291 290 289 288
253 257 260 264 267 269 272 275 278 282 282 285 287 288 291 298 303 303 305 305 300 296 294 294 292 290 287 284 284 284 285 285 285 285 285 286 286 287 288 288 288 288 288 288 287 286 285 284 282
256 258 258 261 264 267 270 274 278 283 282 285 290 292 294 298 303 306 307 307 299 296 294 294 294 290 287 285 284 283 284 285 284 283 284 285 286 287 288 288 287 287 286 286 284 282 282 281 280
260 260 259 259 261 265 269 272 277 281 285 286 289 292 293 296 301 304 306 303 299 295 294 293 292 291 288 286 285 284 284 285 284 283 284 286 287 288 288 288 288 288 287 286 284 281 279 278 278
263 261 259 258 261 265 268 273 277 280 284 288 289 288 289 294 298 301 301 297 295 293 293 292 291 289 287 285 283 282 282 283 284 281 281 284 285 287 287 287 287 288 287 287 285 284 281 277 276
266 264 259 259 261 265 268 272 277 281 285 289 287 285 287 291 296 299 299 296 294 293 292 290 288 288 287 285 281 279 281 282 281 278 279 281 283 283 284 284 286 287 288 288 286 284 282 278 275
269 267 263 261 262 264 267 271 274 279 283 284 283 284 288 292 294 294 295 297 297 296 292 288 289 288 288 285 280 277 279 278 276 276 277 278 279 280 281 282 284 285 286 286 284 282 280 278 275
268 268 267 264 262 262 265 268 271 274 277 278 279 281 285 288 291 292 292 295 295 293 292 291 291 290 287 283 281 277 273 274 272 271 272 273 275 277 279 279 281 282 282 283 283 280 278 278 275
267 268 268 265 262 261 261 264 267 270 271 273 275 278 282 284 286 285 288 292 295 296 294 296 295 291 288 283 277 275 269 269 269 269 267 269 272 274 277 276 278 280 281 280 281 281 278 276 275
264 266 265 264 261 260 261 262 265 268 268 270 272 275 277 280 284 286 289 292 296 297 296 296 295 291 287 284 282 277 268 264 264 264 264 266 269 270 273 277 280 281 280 279 278 277 275 273 273
263 264 262 261 260 260 262 263 265 267 268 269 270 272 275 279 283 285 287 290 293 294 295 294 293 292 289 285 282 279 272 265 263 264 262 263 265 270 276 280 280 280 279 276 275 273 270 268 267
264 264 262 260 260 261 264 265 268 269 269 267 267 269 272 277 280 282 285 289 290 290 290 291 290 290 287 285 282 281 278 270 264 263 261 263 269 272 276 279 282 280 276 273 271 270 266 264 263
267 266 263 260 260 262 264 266 268 270 270 269 269 271 273 276 279 283 285 286 288 287 289 293 294 293 289 288 286 288 283 274 268 265 261 265 269 273 276 279 279 279 275 272 269 266 262 260 260
270 269 267 264 262 261 263 266 268 270 271 270 271 274 276 278 280 282 284 285 287 288 289 292 294 295 291 290 288 289 283 276 273 267 267 268 268 273 279 282 277 275 274 271 267 265 260 258 256
271 272 271 267 266 266 265 267 270 271 274 275 275 277 279 281 283 284 286 287 290 290 288 289 292 293 292 292 289 288 284 281 274 268 266 268 272 276 278 278 276 273 272 269 266 261 257 256 255
274 278 279 278 276 274 273 274 275 275 277 279 280 280 281 283 285 286 286 287 288 288 287 288 291 290 291 291 289 289 289 281 275 273 269 269 272 273 274 275 275 272 270 267 264 259 255 254 254
279 284 286 287 286 285 283 283 282 281 283 284 284 285 286 286 287 289 289 287 286 285 283 285 286 286 287 289 289 289 286 282 280 277 274 273 273 273 274 275 273 271 270 267 263 260 256 254 252
285 290 294 296 296 295 294 291 289 288 287 288 290 292 291 291 293 291 292 290 289 288 287 286 285 285 286 286 287 288 287 284 282 279 277 275 274 273 273 272 271 269 268 267 265 262 257 255 253
292 298 305 308 306 304 303 299 297 294 293 292 293 295 296 297 297 296 297 297 294 293 292 290 288 287 285 285 285 285 285 284 282 278 276 275 273 272 271 270 268 267 266 265 264 261 258 257 255
293 300 307 308 308 310 309 305 303 300 297 295 296 299 299 300 301 301 300 300 298 296 294 292 291 288 287 287 286 285 283 281 279 278 275 273 271 270 269 267 266 264 263 263 262 260 258 257 256
292 299 306 309 312 312 310 308 305 302 300 299 299 300 301 301 301 301 301 300 299 295 293 291 290 288 287 286 285 284 282 280 278 276 274 272 270 268 267 265 264 262 261 260 259 258 257 256 255
302 304 310 310 313 314 314 311 306 301 300 300 301 302 303 303 302 302 302 301 299 297 295 293 291 290 288 286 284 283 281 278 277 275 274 271 270 268 267 264 262 261 260 259 257 256 255 254 253
314 316 315 316 316 315 315 313 312 308 305 305 305 304 305 306 306 305 305 303 302 300 298 296 294 292 290 288 286 284 282 280 278 275 274 272 269 267 265 263 261 260 259 257 256 255 254 253 252
322 320 318 316 314 312 313 313 312 311 311 309 308 308 308 308 307 307 306 304 303 302 300 298 296 294 292 289 287 285 283 281 279 277 275 272 270 268 265 263 260 259 257 256 255 253 252 251 250
322 319 315 313 312 311 311 312 313 313 313 313 312 312 312 311 310 310 309 308 306 305 303 301 299 296 294 291 289 287 285 283 281 279 276 273 271 268 266 263 260 259 257 255 254 253 251 250 249
Height
5913 5913 5913 5914 5914 5913 5912 5912 5911 5910 5910 5909 5909 5909 5909 5909 5909 5910 5908 5907 5906 5906 5905 5904 5904 5903 5901 5900 5899 5898 5896 5896 5895 5895 5894 5894 5894 5893 5893 5893 5892 5892 5892 5892 5891 5891 5891 5891 5890
5913 5913 5914 5914 5913 5913 5913 5912 5911 5910 5910 5909 5909 5908 5908 5908 5908 5907 5906 5906 5905 5905 5904 5904 5903 5902 5901 5899 5898 5897 5896 5895 5894 5894 5893 5893 5892 5892 5892 5892 5891 5891 5891 5891 5891 5891 5890 5890 5890
5913 5913 5914 5914 5913 5913 5913 5913 5911 5910 5910 5909 5909 5908 5908 5907 5907 5906 5906 5905 5905 5904 5903 5902 5902 5900 5899 5898 5897 5896 5895 5894 5893 5892 5892 5892 5891 5891 5891 5890 5890 5890 5890 5890 5890 5890 5890 5890 5890
5913 5913 5914 5914 5912 5912 5912 5912 5911 5910 5910 5909 5908 5908 5907 5907 5906 5905 5904 5904 5903 5903 5902 5901 5900 5899 5898 5896 5895 5894 5894 5893 5892 5891 5891 5890 5890 5889 5889 5888 5888 5888 5888 5888 5888 5888 5888 5888 5888
5911 5912 5912 5911 5911 5911 5911 5911 5910 5910 5909 5908 5907 5907 5906 5906 5904 5904 5903 5902 5902 5901 5900 5900 5898 5897 5896 5895 5894 5893 5892 5891 5890 5889 5889 5888 5888 5887 5886 5886 5886 5885 5885 5885 5885 5885 5886 5886 5886
5910 5910 5910 5909 5909 5909 5909 5908 5908 5908 5907 5907 5906 5906 5905 5904 5903 5902 5902 5901 5900 5900 5899 5898 5896 5895 5894 5893 5892 5891 5890 5889 5888 5887 5886 5886 5885 5884 5884 5883 5883 5883 5882 5882 5882 5882 5882 5882 5883
5908 5908 5907 5907 5906 5906 5906 5906 5906 5905 5905 5905 5905 5904 5904 5903 5902 5901 5900 5899 5899 5898 5897 5896 5894 5893 5892 5891 5890 5889 5888 5886 5885 5884 5883 5883 5882 5881 5881 5880 5880 5879 5879 5879 5878 5878 5878 5878 5879
5904 5905 5905 5904 5903 5903 5903 5903 5903 5903 5903 5903 5903 5902 5901 5901 5900 5899 5898 5897 5896 5896 5895 5894 5892 5891 5890 5888 5887 5886 5884 5883 5882 5881 5880 5879 5878 5878 5877 5877 5876 5875 5875 5875 5874 5874 5874 5874 5874
5901 5902 5902 5901 5900 5900 5900 5900 5900 5900 5901 5900 5900 5900 5899 5898 5898 5897 5896 5895 5894 5893 5892 5891 5890 5888 5887 5885 5884 5882 5881 5880 5878 5877 5876 5875 5874 5874 5873 5872 5871 5871 5870 5870 5869 5869 5869 5869 5869
5896 5898 5899 5897 5896 5896 5897 5896 5897 5897 5897 5897 5897 5897 5896 5895 5895 5894 5893 5892 5891 5890 5889 5887 5886 5884 5883 5881 5879 5878 5877 5875 5874 5872 5871 5871 5870 5869 5868 5867 5867 5866 5865 5865 5864 5864 5864 5864 5864
5892 5894 5894 5893 5892 5892 5893 5893 5893 5893 5894 5894 5893 5893 5892 5892 5891 5890 5889 5888 5887 5886 5884 5883 5881 5880 5878 5876 5874 5873 5871 5870 5868 5867 5865 5865 5864 5863 5863 5862 5861 5861 5860 5860 5859 5859 5858 5859 5859
5887 5889 5889 5890 5889 5889 5889 5889 5889 5889 5890 5890 5889 5888 5888 5888 5887 5886 5885 5884 5883 5881 5879 5878 5876 5874 5872 5870 5869 5867 5866 5864 5862 5861 5860 5859 5858 5858 5857 5856 5855 5855 5855 5854 5854 5853 5853 5854 5854
5882 5884 5884 5885 5885 5884 5884 5884 5884 5884 5885 5884 5884 5883 5883 5883 5882 5882 5880 5879 5877 5875 5874 5872 5870 5868 5865 5864 5862 5861 5859 5857 5856 5855 5854 5853 5852 5851 5850 5850 5849 5849 5849 5848 5848 5848 5848 5848 5848
5879 5879 5880 5880 5880 5879 5879 5879 5879 5879 5879 5879 5878 5878 5878 5878 5877 5876 5875 5874 5872 5869 5867 5865 5863 5860 5858 5856 5854 5853 5851 5849 5848 5847 5846 5845 5845 5845 5844 5844 5844 5843 5843 5843 5842 5842 5842 5842 5842
5874 5875 5875 5875 5874 5874 5874 5874 5874 5873 5873 5873 5873 5873 5872 5872 5872 5871 5870 5868 5866 5863 5861 5858 5855 5852 5849 5847 5845 5843 5840 5839 5838 5838 5837 5837 5837 5838 5837 5837 5837 5837 5837 5837 5836 5836 5836 5836 5837
5870 5870 5870 5870 5869 5868 5870 5869 5869 5868 5868 5868 5868 5868 5867 5866 5866 5865 5864 5862 5860 5857 5854 5851 5848 5844 5841 5837 5834 5833 5831 5830 5829 5829 5829 5829 5828 5830 5830 5830 5831 5831 5830 5831 5831 5831 5831 5831 5832
5866 5866 5865 5865 5864 5864 5864 5864 5864 5863 5863 5863 5863 5862 5862 5861 5860 5858 5857 5854 5852 5849 5846 5843 5839 5835 5832 5828 5825 5823 5822 5822 5821 5821 5821 5822 5821 5823 5823 5824 5824 5825 5825 5825 5825 5825 5826 5826 5827
5862 5862 5861 5861 5860 5860 5859 5859 5859 5859 5859 5858 5858 5857 5856 5855 5854 5852 5849 5847 5844 5841 5838 5835 5831 5828 5825 5821 5818 5815 5813 5811 5811 5813 5815 5815 5815 5817 5818 5817 5818 5819 5819 5819 5820 5820 5820 5821 5822
5858 5858 5857 5857 5856 5856 5855 5855 5855 5854 5854 5854 5853 5852 5851 5849 5847 5845 5842 5839 5836 5833 5829 5827 5824 5820 5817 5813 5810 5808 5805 5803 5805 5807 5808 5808 5808 5811 5811 5811 5812 5812 5813 5813 5813 5814 5814 5815 5817
5855 5855 5854 5854 5853 5852 5851 5851 5850 5850 5849 5849 5848 5846 5845 5843 5840 5837 5834 5830 5827 5825 5822 5819 5816 5813 5810 5807 5803 5801 5799 5798 5799 5800 5801 5801 5803 5804 5805 5805 5806 5806 5807 5807 5807 5807 5809 5810 5811
5853 5852 5851 5850 5849 5848 5848 5847 5846 5845 5844 5843 5842 5840 5838 5836 5833 5829 5825 5822 5819 5816 5814 5812 5808 5805 5803 5799 5797 5795 5793 5792 5793 5793 5793 5795 5796 5796 5797 5798 5799 5800 5800 5800 5800 5801 5802 5804 5805
5850 5850 5849 5847 5846 5845 5845 5843 5842 5840 5839 5837 5836 5833 5831 5828 5825 5821 5817 5814 5811 5808 5806 5804 5801 5799 5796 5793 5791 5789 5788 5787 5787 5787 5788 5788 5788 5788 5789 5790 5791 5792 5793 5793 5794 5795 5795 5797 5799
5848 5847 5846 5845 5843 5842 5841 5839 5839 5836 5834 5832 5829 5827 5824 5821 5817 5814 5810 5806 5804 5801 5798 5796 5793 5791 5788 5786 5784 5783 5781 5780 5780 5780 5780 5781 5780 5780 5781 5782 5782 5783 5784 5785 5786 5787 5788 5789 5791
5846 5845 5844 5842 5841 5840 5838 5836 5835 5832 5829 5827 5824 5821 5818 5815 5811 5807 5803 5799 5796 5793 5790 5787 5784 5781 5779 5777 5775 5774 5772 5771 5771 5770 5770 5770 5770 5770 5770 5772 5773 5774 5775 5776 5777 5778 5779 5781 5782
5844 5843 5842 5840 5839 5838 5836 5833 5832 5828 5825 5822 5819 5816 5812 5809 5805 5801 5797 5792 5788 5785 5781 5778 5775 5772 5768 5766 5764 5762 5761 5760 5759 5759 5759 5759 5758 5759 5759 5760 5761 5762 5763 5765 5766 5768 5769 5771 5773
5842 5841 5840 5838 5836 5834 5832 5830 5828 5824 5821 5817 5814 5810 5806 5802 5798 5794 5789 5785 5780 5776 5772 5768 5764 5761 5757 5754 5751 5749 5747 5746 5745 5744 5744 5744 5744 5744 5745 5746 5747 5749 5750 5752 5754 5756 5758 5760 5762
5839 5838 5837 5835 5832 5830 5828 5826 5823 5819 5816 5812 5808 5804 5800 5795 5790 5785 5780 5775 5770 5765 5761 5756 5752 5748 5743 5740 5737 5734 5732 5730 5729 5728 5727 5727 5727 5728 5728 5730 5731 5733 5735 5737 5739 5742 5744 5747 5749
5837 5835 5833 5831 5828 5825 5823 5820 5817 5813 5809 5806 5801 5796 5792 5786 5781 5775 5769 5764 5759 5753 5748 5742 5737 5733 5728 5724 5720 5717 5715 5713 5711 5710 5709 5709 5709 5709 5710 5712 5714 5716 5718 5721 5723 5726 5729 5732 5735
5834 5832 5830 5827 5825 5821 5818 5817 5811 5807 5803 5798 5793 5788 5782 5776 5770 5764 5758 5752 5745 5739 5733 5727 5722 5716 5711 5707 5702 5699 5696 5693 5692 5691 5690 5689 5689 5690 5691 5692 5694 5697 5699 5702 5705 5709 5712 5716 5719
5832 5829 5827 5824 5821 5817 5814 5813 5805 5800 5795 5790 5784 5778 5771 5765 5758 5751 5745 5738 5730 5723 5717 5710 5704 5698 5693 5688 5683 5679 5676 5672 5670 5669 5668 5668 5668 5668 5669 5671 5673 5676 5679 5682 5685 5689 5693 5698 5702